Flag for Colombia Weather past 2 weeks in Cali, Colombia

Now
72 °F

Passing clouds.


Feels Like: 71 °F
Forecast: 70 / 82 °F
Wind: 5 mph from Northeast

Location: Cali / Alfonso Bonillaaragon

Current Time: Jul 6, 2015 at 3:15:33 AM

Latest Report: Jul 6, 2015 at 2:00 AM


Visibility: N/A

Pressure: 29.99 "Hg (26.85 "Hg at 955m altitude)

Humidity: 83%

Dew point: 66 °F

Location of CaliLocation

Historic Weather in Cali — Graph

°F

Cali temperature yesterday

Maximum temperature yesterday: 84 °F (at 1:00 PM)
Minimum temperature yesterday: 70 °F (at 4:00 AM)
Average temperature yesterday: 76 °F

Past Weeks' High & Low Weather Summary

 TemperatureHumidityPressure
High95 °F (Jun 24, 3:00 PM)100% (Jun 22, 1:00 AM)30.04 "Hg (Jun 22, 1:00 AM)
Low63 °F (Jul 1, 6:00 AM)28% (Jun 24, 3:00 PM)28.83 "Hg (Jul 5, 2:00 PM)
Average77 °F70%29.92 "Hg
* Reported Jun 21 2:00 AM — Jul 6 2:00 AM, Cali, Weather by CustomWeather, © 2015

Note: Actual official high and low records may vary slightly from our data, if they occured in-between our weather recording intervals... More about our weather records

Advertising

Cali weather history for previous 24 hours

 ConditionsComfort  
Time TempWeatherWind HumidityBarometerVisibility
2:00 AM
Mon, Jul 6
72 °FPassing clouds.5 mph83%29.99 "HgN/A
1:00 AM72 °FPassing clouds.No wind83%29.99 "HgN/A
12:00 AM72 °FPassing clouds.3 mph83%30.01 "HgN/A
11:00 PM
Sun, Jul 5
70 °FPassing clouds.58 mph88%30.00 "HgN/A
10:00 PM70 °FPassing clouds.5 mph83%29.99 "HgN/A
9:00 PM72 °FPassing clouds.6 mph83%29.97 "HgN/A
8:00 PM75 °FPassing clouds.7 mph74%29.95 "HgN/A
7:00 PM79 °FPassing clouds.6 mph65%29.81 "Hg6 mi
6:00 PM81 °FScattered clouds.9 mph62%29.92 "HgN/A
5:00 PM82 °FScattered clouds.9 mph55%29.89 "HgN/A
4:00 PM84 °FScattered showers. Scattered clouds.9 mph55%29.90 "HgN/A
3:00 PM84 °FScattered showers. Broken clouds.12 mph55%29.91 "HgN/A
2:00 PM84 °FScattered showers. Broken clouds.12 mph55%28.83 "HgN/A
1:00 PM84 °FPartly sunny.3 mph55%29.95 "HgN/A
12:00 PM82 °FPartly sunny.3 mph58%29.97 "HgN/A
11:00 AM81 °FBroken clouds.5 mph62%29.99 "HgN/A
10:00 AM79 °FPartly sunny.6 mph65%29.99 "HgN/A
9:00 AM77 °FPartly sunny.2 mph69%29.98 "HgN/A
8:00 AM73 °FScattered showers. Partly sunny.5 mph83%29.99 "HgN/A
7:00 AM72 °FScattered clouds.3 mph88%29.96 "HgN/A
6:00 AM70 °FScattered clouds.No wind88%29.94 "HgN/A
5:00 AM70 °FPassing clouds.No wind88%29.93 "HgN/A
4:00 AM70 °FPassing clouds.5 mph88%29.92 "HgN/A
3:00 AM72 °FPartly cloudy.3 mph83%29.91 "HgN/A
Weather by CustomWeather, © 2015

See weather overviewHow to use our weather pages